[[{"header":{"parameterUnit":"m.s-1","parameterCategory":1,"la1":30.2991,"la2":30.254,"lo1":-89.0895,"lo2":-89.0444,"dy":0.0017,"dx":0.0017,"nx":28,"ny":28,"refTime":"2025-07-19T09:00:00:Z","depth":0,"parameterNumber":2,"parameterNumberName":"U-component_of_WINDS"},"data":[0,0,0,0,0,0,0,0,0,0,0,0,0,0,0,0,0,0,0,0,0,0,0,0,0,0,0,0,0,0,0,0,0,0,0,0,0,0,0,0,0,0,0,0,0,0,0,0,0,0,0,0,0,0,0,0,0,0,2.6042,2.6042,0,2.6051,2.6051,2.6051,2.5991,2.5989,2.5987,2.5986,2.5996,2.5997,2.5999,0,0,0,0,0,0,0,0,0,0,0,0,0,2.5972,2.5973,2.6042,2.6042,2.6042,2.6051,2.6051,2.6051,2.5991,2.5989,2.5987,2.5985,2.5995,2.5997,2.5999,0,0,0,0,0,0,0,0,0,0,0,0,0,2.5994,2.5974,2.6042,2.6013,2.6011,2.6051,2.6051,2.6051,2.5991,2.5989,2.5986,2.5984,2.5994,2.5997,2.6,2.6069,0,0,2.6008,2.601,0,0,0,0,0,0,0,0,2.5993,2.5996,2.6017,2.6015,2.6013,2.6017,2.603,2.6057,2.5992,2.5999,2.5985,2.5983,2.6005,2.6007,2.6014,2.6069,2.6069,2.6009,2.601,2.6011,2.6012,0,0,0,0,0,0,0,2.5991,2.5996,2.6046,2.6018,2.6015,2.5999,2.6,2.6035,2.6016,2.5998,2.5994,2.5995,2.6003,2.6011,2.6014,2.607,2.6008,2.6011,2.6013,2.6014,2.6177,2.618,0,0,0,0,0,0,2.5993,2.5995,2.6045,2.6046,2.5996,2.6003,2.6003,2.6018,2.6016,2.6013,2.5998,2.5993,2.6008,2.6011,2.6014,2.6091,2.6011,2.6014,2.6016,2.6175,2.6178,2.6181,0,0,0,0,0,0,2.5992,2.5999,2.6045,2.6019,2.6024,2.6007,2.6024,2.602,2.6028,2.6015,2.6012,2.601,2.6006,2.601,2.6054,2.609,2.6015,2.6018,2.6171,2.6176,2.6179,2.6248,0,0,0,0,0,0,2.599,2.5998,2.6025,2.602,2.6025,2.6086,2.6027,2.6022,2.6033,2.6026,2.6026,2.6023,2.6004,2.6051,2.6057,2.6093,2.602,2.6168,2.6173,2.6178,2.6242,2.6253,2.6263,0,0,0,0,0,2.5988,2.6045,2.6026,2.6033,2.6058,2.6088,2.6091,2.6068,2.6036,2.6062,2.6053,2.6023,2.6086,2.6056,2.6063,2.61,2.6166,2.6172,2.6178,2.6237,2.6251,2.6263,0,0,0,0,0,0,2.6055,2.6044,2.6023,2.608,2.6085,2.6078,2.611,2.6084,2.6099,2.6092,2.6064,2.6064,2.6112,2.6111,2.6077,2.6164,2.612,2.6128,2.6163,2.6176,2.6187,2.6185,2.6022,0,0,0,0,0,2.6077,2.6102,2.6091,2.6142,2.6145,2.6127,2.614,2.6121,2.6126,2.6128,2.6122,2.6128,2.6148,2.6163,2.6181,2.6242,2.6239,2.6271,2.6282,2.629,2.6297,2.6325,2.6338,2.62,2.62,2.62,0,0,2.6121,2.6118,2.6136,2.6155,2.6157,2.6183,2.613,2.616,2.6178,2.6132,2.6172,2.6169,2.6173,2.6225,2.6248,2.6225,2.6334,2.6298,2.6305,2.6306,2.6333,2.6346,2.6357,2.6204,2.6204,2.6203,0,0,2.6214,2.6216,2.6256,2.6259,2.6262,2.6249,2.6259,2.6255,2.625,2.629,2.6255,2.6277,2.6314,2.6317,2.6324,2.6416,2.6387,2.6423,2.6477,2.6506,2.6516,2.6526,2.6555,2.6567,2.643,2.643,2.643,0,2.6269,2.6306,2.6281,2.6312,2.6321,2.628,2.6319,2.6324,2.6333,2.6339,2.6314,2.6357,2.6358,2.6408,2.643,2.6438,2.6447,2.6422,2.6517,2.6526,2.6534,2.6562,2.6574,2.6434,2.6434,2.6433,2.6433,0,2.6371,2.6398,2.6431,2.6438,2.6451,2.6487,2.6466,2.6482,2.6462,2.6452,2.6492,2.6491,2.6506,2.6518,2.65,2.6565,2.655,2.6522,2.6476,2.6552,2.6577,2.6588,2.644,2.6438,2.6437,2.6436,0,0,2.6507,2.6499,2.6511,2.6512,2.6512,2.6531,2.6565,2.6579,2.6592,2.66,2.6625,2.6657,2.6629,2.6637,2.6619,2.6644,2.6713,2.6612,2.6612,2.6628,2.6781,2.6799,2.6812,2.6695,2.6697,2.6699,2.6779,0,2.6594,2.665,2.6627,2.6684,2.6706,2.6667,2.6696,2.6698,2.6689,2.6707,2.6697,2.6718,2.6682,2.6686,2.6709,2.67,2.6743,2.6694,2.6717,2.6718,2.6714,2.6826,2.6847,2.6923,2.6789,2.6791,2.6792,0,2.6704,2.6714,2.6773,2.6765,2.6774,2.68,2.681,2.6828,2.6829,2.6821,2.6828,2.6804,2.6835,2.6792,2.6833,2.68,2.6808,2.6805,2.6807,2.6806,2.6757,2.6825,2.6947,2.6957,2.6808,2.6807,2.6806,0,2.6792,2.6821,2.6858,2.6862,2.6855,2.6873,2.6872,2.687,2.688,2.6889,2.6894,2.6908,2.6914,2.6925,2.6904,2.6875,2.6947,2.6903,2.6939,2.694,2.6954,2.6953,2.7075,2.6965,2.6965,2.6965,2.6964,0,2.689,2.6927,2.6897,2.692,2.696,2.6933,2.6973,2.6967,2.6966,2.6986,2.6954,2.6974,2.6947,2.6965,2.6949,2.6984,2.6988,2.6981,2.6975,2.6982,2.6982,2.6984,2.6977,2.6968,2.6967,2.6966,2.6966,0,2.6994,2.6976,2.7014,2.7004,2.7002,2.7031,2.7022,2.7042,2.7031,2.7057,2.7062,2.7044,2.7062,2.7043,2.7061,2.705,2.7096,2.7085,2.7095,2.709,2.7126,2.7122,2.7252,2.7266,2.715,2.7151,2.7152,0,2.7057,2.7083,2.7075,2.7086,2.7085,2.7104,2.7112,2.7087,2.7098,2.71,2.7119,2.7135,2.7145,2.7176,2.7165,2.7177,2.7164,2.7209,2.7166,2.717,2.7161,2.7158,2.7159,2.7217,2.7218,2.722,2.722,0,2.7168,2.7157,2.717,2.7179,2.719,2.7197,2.7201,2.7212,2.7186,2.7199,2.7216,2.7225,2.7241,2.7256,2.7265,2.7263,2.7237,2.7234,2.7243,2.7248,2.7251,2.7246,2.7115,2.7231,2.723,2.7229,2.7229,2.7228,2.725,2.7271,2.7267,2.7282,2.7282,2.7286,2.7304,2.7294,2.7308,2.7318,2.7303,2.7324,2.7323,2.7332,2.7333,2.7348,2.7329,2.7342,2.7345,2.7348,2.7351,2.7251,2.735,2.735,2.735,2.735,2.7349,0,2.7356,2.7352,2.7366,2.7371,2.7383,2.7357,2.736,2.7371,2.739,2.7391,2.7401,2.742,2.7434,2.7423,2.7434,2.7448,2.7437,2.7452,2.7449,2.7448,2.737,2.7359,2.7461,2.7461,2.7461,2.7461,2.7461,2.7461,2.7413,2.7445,2.7433,2.7464,2.746,2.7479,2.7482,2.7485,2.7485,2.7507,2.7518,2.7511,2.7506,2.7517,2.7528,2.7524,2.7528,2.7547,2.7539,2.7465,2.7454,2.7444,2.7434,2.7549,2.7549,2.7616,2.7617,2.7617]},{"header":{"parameterUnit":"m.s-1","parameterCategory":1,"la1":30.2991,"la2":30.254,"lo1":-89.0895,"lo2":-89.0444,"dy":0.0017,"dx":0.0017,"nx":28,"ny":28,"refTime":"2025-07-19T09:00:00:Z","depth":0,"parameterNumber":3,"parameterNumberName":"V-component_of_WINDS"},"data":[0,0,0,0,0,0,0,0,0,0,0,0,0,0,0,0,0,0,0,0,0,0,0,0,0,0,0,0,0,0,0,0,0,0,0,0,0,0,0,0,0,0,0,0,0,0,0,0,0,0,0,0,0,0,0,0,0,0,4.3175,4.3176,0,4.3315,4.3317,4.3319,4.3298,4.3296,4.3293,4.3291,4.343,4.3435,4.3441,0,0,0,0,0,0,0,0,0,0,0,0,0,4.2882,4.2887,4.3174,4.3176,4.3178,4.3315,4.3317,4.3319,4.3299,4.3296,4.3293,4.329,4.3428,4.3435,4.3442,0,0,0,0,0,0,0,0,0,0,0,0,0,4.3014,4.2889,4.3174,4.3185,4.3187,4.3315,4.3317,4.3319,4.3299,4.3296,4.3292,4.3289,4.3425,4.3434,4.3443,4.3567,0,0,4.347,4.3473,0,0,0,0,0,0,0,0,4.3007,4.3025,4.3181,4.3184,4.3187,4.3286,4.3264,4.3402,4.33,4.3256,4.3291,4.3287,4.3384,4.3396,4.343,4.3574,4.358,4.347,4.3476,4.3479,4.3482,0,0,0,0,0,0,0,4.2997,4.3019,4.323,4.3184,4.3187,4.318,4.3195,4.329,4.3338,4.326,4.3259,4.3276,4.3385,4.3422,4.3433,4.3582,4.347,4.3478,4.3483,4.3487,4.3832,4.3836,0,0,0,0,0,0,4.2986,4.3011,4.3226,4.3234,4.3086,4.3188,4.3205,4.3257,4.3337,4.3346,4.3279,4.3275,4.3408,4.3423,4.3438,4.3588,4.3479,4.3488,4.3493,4.3829,4.3833,4.3837,0,0,0,0,0,0,4.298,4.3006,4.322,4.3123,4.3149,4.3197,4.3256,4.3262,4.3299,4.3352,4.3359,4.3308,4.3406,4.3426,4.3535,4.3592,4.3492,4.35,4.3824,4.383,4.3835,4.389,0,0,0,0,0,0,4.2972,4.3004,4.3053,4.3124,4.3155,4.3317,4.326,4.3267,4.3315,4.331,4.3381,4.3389,4.3405,4.3522,4.3544,4.3603,4.3506,4.3819,4.3827,4.3833,4.3883,4.3897,4.3908,0,0,0,0,0,4.2961,4.3062,4.3056,4.3082,4.3218,4.3321,4.3338,4.3356,4.332,4.3368,4.3402,4.3387,4.3583,4.3534,4.3558,4.362,4.3815,4.3824,4.3833,4.3877,4.3894,4.3908,0,0,0,0,0,0,4.2995,4.3071,4.3065,4.3192,4.325,4.3317,4.3379,4.3373,4.3441,4.3434,4.3451,4.3467,4.3578,4.361,4.3554,4.3744,4.3694,4.3708,4.3719,4.3735,4.3748,4.3737,4.3514,0,0,0,0,0,4.3018,4.3097,4.3158,4.3264,4.3294,4.3332,4.3377,4.3386,4.3446,4.3469,4.3511,4.3568,4.3642,4.3691,4.3762,4.3887,4.3901,4.3942,4.3955,4.3965,4.3976,4.4043,4.4062,4.3866,4.3866,4.3866,0,0,4.3064,4.3116,4.3164,4.3272,4.3318,4.3397,4.3352,4.3438,4.3496,4.3482,4.3588,4.3621,4.3685,4.3803,4.3857,4.3833,4.4033,4.3976,4.3984,4.399,4.4054,4.4073,4.4089,4.3872,4.3871,4.387,0,0,4.319,4.3238,4.333,4.3377,4.3448,4.3472,4.3495,4.3562,4.3584,4.3691,4.3681,4.3749,4.3878,4.3923,4.3964,4.4105,4.4093,4.4127,4.4194,4.4258,4.4274,4.4287,4.4336,4.4354,4.4139,4.4139,4.4139,0,4.3238,4.336,4.3378,4.3466,4.3512,4.3504,4.3597,4.3641,4.373,4.3762,4.3734,4.3894,4.3937,4.4064,4.4099,4.4132,4.4156,4.4119,4.4271,4.4284,4.4297,4.4344,4.4363,4.4143,4.4142,4.4142,4.4142,0,4.3415,4.3499,4.3565,4.3653,4.3707,4.3797,4.3827,4.3879,4.3882,4.3909,4.4017,4.4068,4.4149,4.418,4.4184,4.4308,4.429,4.4267,4.4216,4.4319,4.4363,4.4382,4.4148,4.4147,4.4146,4.4145,0,0,4.3566,4.3663,4.3687,4.3726,4.3803,4.3867,4.3955,4.4036,4.4079,4.414,4.4213,4.4321,4.4299,4.4345,4.4353,4.4411,4.4517,4.438,4.4381,4.4402,4.4655,4.4671,4.4692,4.451,4.4513,4.4516,4.4649,0,4.3698,4.3856,4.3874,4.4014,4.409,4.4083,4.4159,4.4213,4.424,4.4306,4.4335,4.4411,4.4377,4.4404,4.4461,4.4493,4.4568,4.4483,4.4575,4.4578,4.4559,4.4715,4.4734,4.4856,4.4666,4.4669,4.4671,0,4.3873,4.3941,4.4088,4.4153,4.4186,4.4254,4.4329,4.4394,4.4454,4.4469,4.4519,4.4521,4.4609,4.4555,4.4676,4.4618,4.4656,4.4677,4.4682,4.4691,4.4631,4.4727,4.4896,4.4914,4.4699,4.4697,4.4695,0,4.3966,4.4095,4.4199,4.4233,4.4312,4.436,4.4394,4.4451,4.4498,4.4562,4.4592,4.4665,4.4705,4.4761,4.478,4.474,4.4899,4.4848,4.4912,4.4912,4.4945,4.4943,4.5122,4.4972,4.4972,4.4971,4.4971,0,4.4111,4.4201,4.4242,4.4306,4.4406,4.4425,4.4523,4.4555,4.4605,4.4674,4.4671,4.4735,4.4758,4.4825,4.484,4.4936,4.4955,4.4968,4.4971,4.4968,4.4966,4.4992,4.4984,4.4976,4.4975,4.4974,4.4974,0,4.4232,4.4264,4.4377,4.4442,4.446,4.4531,4.4586,4.4646,4.4672,4.4758,4.478,4.4819,4.4898,4.4923,4.5018,4.5028,4.514,4.5136,4.512,4.512,4.5183,4.5176,4.5384,4.5412,4.5245,4.5246,4.5248,0,4.4322,4.4391,4.4464,4.4511,4.4548,4.4623,4.4671,4.4692,4.4741,4.4814,4.4866,4.4944,4.5008,4.5133,4.5168,4.524,4.5237,4.5305,4.5247,4.5241,4.5236,4.5231,4.5237,4.5315,4.5317,4.5318,4.5319,0,4.4478,4.449,4.456,4.4636,4.4693,4.4753,4.4811,4.4849,4.4878,4.4934,4.5015,4.5064,4.5161,4.5237,4.531,4.5343,4.5336,4.5337,4.5356,4.5353,4.534,4.5347,4.5148,4.5332,4.5331,4.533,4.5329,4.5329,4.4585,4.4646,4.4707,4.4784,4.483,4.4884,4.4944,4.4978,4.5047,4.5128,4.5136,4.5223,4.5279,4.5376,4.5413,4.5479,4.546,4.5487,4.5493,4.5499,4.5504,4.5331,4.5493,4.5492,4.5492,4.5492,4.5491,0,4.4739,4.4778,4.485,4.4931,4.4992,4.4982,4.5045,4.5095,4.5173,4.5227,4.529,4.5382,4.5456,4.5497,4.5571,4.5616,4.5614,4.5634,4.5631,4.5638,4.5518,4.5494,4.5634,4.5634,4.5634,4.5634,4.5634,4.5634,4.4827,4.4928,4.4947,4.507,4.5108,4.5195,4.5231,4.528,4.5323,4.5427,4.5489,4.5516,4.5565,4.5642,4.5708,4.5718,4.5745,4.5767,4.5775,4.5661,4.5647,4.5632,4.561,4.5773,4.5773,4.5889,4.589,4.5891]}]]